EZS1386 LFMN-LSGG

Flight info

Callsign EZS1386
Flight time 0h 44m
Altitude 24000
Route IRMAR DCT KINES
Aircraft A320/M-SDE2E3FGHIJ1RWXYZ/LB1

Departure

Time 2026-05-07 06:55
Airport Nice-Côte d'Azur Airport (LFMN)

Arrival

Time 2026-05-07 07:39
Airport Geneva International Airport (LSGG)
Time Latitude Longitude Altitude Speed Heading
2026-05-07 06:37 43.66119 7.20685 23 ft 0 kts 261°
2026-05-07 06:46 43.66121 7.20710 22 ft 4 kts 261°
2026-05-07 06:46 43.66125 7.20746 24 ft 4 kts 256°
2026-05-07 06:46 43.66136 7.20777 24 ft 4 kts 214°
2026-05-07 06:46 43.66158 7.20786 24 ft 2 kts 171°
2026-05-07 06:47 43.66164 7.20785 22 ft 0 kts 171°
2026-05-07 06:48 43.66163 7.20785 22 ft 0 kts 171°
2026-05-07 06:48 43.66158 7.20786 24 ft 3 kts 171°
2026-05-07 06:49 43.66108 7.20796 24 ft 11 kts 172°
2026-05-07 06:49 43.66009 7.20819 22 ft 17 kts 171°
2026-05-07 06:49 43.65887 7.20845 23 ft 18 kts 169°
2026-05-07 06:49 43.65762 7.20871 24 ft 15 kts 173°
2026-05-07 06:50 43.65646 7.20894 22 ft 20 kts 171°
2026-05-07 06:50 43.65529 7.20924 24 ft 16 kts 168°
2026-05-07 06:50 43.65418 7.20952 24 ft 13 kts 170°
2026-05-07 06:50 43.65353 7.20952 22 ft 8 kts 200°
2026-05-07 06:51 43.65314 7.20908 22 ft 7 kts 225°
2026-05-07 06:51 43.65282 7.20863 22 ft 8 kts 225°
2026-05-07 06:51 43.65238 7.20803 22 ft 10 kts 224°
2026-05-07 06:51 43.65178 7.20722 23 ft 14 kts 225°
2026-05-07 06:52 43.65101 7.20615 22 ft 19 kts 225°
2026-05-07 06:52 43.64998 7.20472 22 ft 23 kts 225°
2026-05-07 06:52 43.64881 7.20312 22 ft 22 kts 225°
2026-05-07 06:52 43.64811 7.20214 22 ft 12 kts 225°
2026-05-07 06:53 43.64748 7.20181 22 ft 7 kts 175°
2026-05-07 06:53 43.64714 7.20220 22 ft 6 kts 129°
2026-05-07 06:53 43.64694 7.20264 23 ft 6 kts 105°
2026-05-07 06:53 43.64712 7.20304 23 ft 0 kts 44°
2026-05-07 06:54 43.64713 7.20306 23 ft 3 kts 44°
2026-05-07 06:54 43.64876 7.20525 22 ft 71 kts 44°
2026-05-07 06:54 43.65384 7.21225 25 ft 132 kts 45°
2026-05-07 06:55 43.66138 7.22273 223 ft 162 kts 44°
2026-05-07 06:55 43.66884 7.23413 1002 ft 162 kts 60°
2026-05-07 06:55 43.67033 7.25009 1455 ft 182 kts 108°
2026-05-07 06:55 43.66284 7.26478 1913 ft 198 kts 136°
2026-05-07 06:56 43.65192 7.27794 2337 ft 217 kts 140°
2026-05-07 06:56 43.64018 7.29127 3130 ft 221 kts 141°
2026-05-07 06:56 43.62835 7.30493 3971 ft 223 kts 140°
2026-05-07 06:56 43.61500 7.31585 4740 ft 227 kts 167°
2026-05-07 06:57 43.59939 7.31602 5498 ft 227 kts 199°
2026-05-07 06:57 43.58581 7.30575 6320 ft 222 kts 227°
2026-05-07 06:57 43.57719 7.28865 7139 ft 218 kts 252°
2026-05-07 06:57 43.57521 7.26805 7847 ft 224 kts 276°
2026-05-07 06:58 43.58104 7.24714 8222 ft 250 kts 307°
2026-05-07 06:58 43.59001 7.23640 8529 ft 267 kts 328°
2026-05-07 06:58 43.60720 7.22524 9279 ft 277 kts 333°
2026-05-07 06:58 43.62497 7.21435 10101 ft 283 kts 333°
2026-05-07 06:59 43.64365 7.20297 10452 ft 305 kts 333°
2026-05-07 06:59 43.66362 7.19074 10925 ft 320 kts 333°
2026-05-07 06:59 43.68418 7.17812 11656 ft 326 kts 333°
2026-05-07 06:59 43.70499 7.16528 12433 ft 330 kts 333°
2026-05-07 07:00 43.72606 7.15223 13202 ft 334 kts 333°
2026-05-07 07:00 43.74736 7.13897 13944 ft 337 kts 333°
2026-05-07 07:00 43.76887 7.12556 14655 ft 340 kts 333°
2026-05-07 07:00 43.79055 7.11204 15354 ft 343 kts 333°
2026-05-07 07:01 43.81242 7.09842 16053 ft 346 kts 333°
2026-05-07 07:01 43.83444 7.08471 16753 ft 348 kts 333°
2026-05-07 07:01 43.85660 7.07090 17462 ft 351 kts 333°
2026-05-07 07:01 43.87893 7.05695 18161 ft 353 kts 333°
2026-05-07 07:02 43.90143 7.04288 18761 ft 356 kts 333°
2026-05-07 07:02 43.92406 7.02871 19343 ft 358 kts 332°
2026-05-07 07:02 43.94686 7.01439 19920 ft 361 kts 332°
2026-05-07 07:02 43.96981 6.99995 20504 ft 364 kts 332°
2026-05-07 07:03 43.99292 6.98534 21064 ft 366 kts 331°
2026-05-07 07:03 44.01618 6.97064 21629 ft 369 kts 331°
2026-05-07 07:03 44.03965 6.95587 22135 ft 371 kts 331°
2026-05-07 07:03 44.06328 6.94100 22650 ft 374 kts 331°
2026-05-07 07:04 44.08705 6.92600 23167 ft 377 kts 331°
2026-05-07 07:04 44.11102 6.91086 23674 ft 380 kts 331°
2026-05-07 07:04 44.13548 6.89642 24117 ft 386 kts 336°
2026-05-07 07:04 44.16181 6.88758 24555 ft 394 kts 347°
2026-05-07 07:05 44.18927 6.88337 24977 ft 399 kts 348°
2026-05-07 07:05 44.21695 6.87926 25393 ft 402 kts 348°
2026-05-07 07:05 44.24481 6.87509 25838 ft 403 kts 348°
2026-05-07 07:05 44.27276 6.87087 26267 ft 405 kts 348°
2026-05-07 07:06 44.30089 6.86659 26672 ft 408 kts 348°
2026-05-07 07:06 44.32918 6.86226 27059 ft 410 kts 348°
2026-05-07 07:06 44.35765 6.85793 27432 ft 413 kts 347°
2026-05-07 07:06 44.38634 6.85359 27848 ft 416 kts 347°
2026-05-07 07:07 44.41519 6.84922 28004 ft 420 kts 348°
2026-05-07 07:07 44.44435 6.84478 27990 ft 423 kts 348°
2026-05-07 07:07 44.50247 6.83595 28007 ft 422 kts 348°
2026-05-07 07:08 44.56087 6.82712 28008 ft 422 kts 348°
2026-05-07 07:08 44.61918 6.81825 28011 ft 422 kts 348°
2026-05-07 07:09 44.67750 6.80928 28014 ft 421 kts 348°
2026-05-07 07:09 44.73576 6.80037 28009 ft 421 kts 348°
2026-05-07 07:10 44.79398 6.79149 28016 ft 421 kts 348°
2026-05-07 07:10 44.85251 6.78521 28011 ft 422 kts 353°
2026-05-07 07:11 44.91130 6.78224 28002 ft 423 kts 354°
2026-05-07 07:11 44.97010 6.77934 28004 ft 422 kts 353°
2026-05-07 07:12 45.02881 6.77561 28020 ft 422 kts 353°
2026-05-07 07:12 45.08751 6.77155 28014 ft 422 kts 353°
2026-05-07 07:13 45.14619 6.76759 28015 ft 422 kts 353°
2026-05-07 07:13 45.20487 6.76370 28043 ft 422 kts 354°
2026-05-07 07:14 45.26349 6.75986 28031 ft 421 kts 354°
2026-05-07 07:14 45.32206 6.75589 28017 ft 421 kts 353°
2026-05-07 07:15 45.37942 6.74227 28018 ft 418 kts 346°
2026-05-07 07:15 45.43655 6.72667 28024 ft 418 kts 346°
2026-05-07 07:16 45.49332 6.71127 27960 ft 418 kts 346°
2026-05-07 07:16 45.52187 6.70353 27757 ft 405 kts 346°
2026-05-07 07:16 45.54915 6.69622 27505 ft 394 kts 346°
2026-05-07 07:17 45.57577 6.68929 27237 ft 383 kts 347°
2026-05-07 07:17 45.60174 6.68264 26894 ft 376 kts 347°
2026-05-07 07:17 45.62699 6.67620 26450 ft 372 kts 347°
2026-05-07 07:17 45.65232 6.66973 26008 ft 367 kts 347°
2026-05-07 07:18 45.67734 6.66331 25549 ft 364 kts 347°
2026-05-07 07:18 45.70212 6.65692 25099 ft 360 kts 347°
2026-05-07 07:18 45.72670 6.65055 24646 ft 358 kts 347°
2026-05-07 07:18 45.75112 6.64416 24183 ft 355 kts 347°
2026-05-07 07:19 45.77537 6.63768 23721 ft 354 kts 346°
2026-05-07 07:19 45.79947 6.63112 23211 ft 352 kts 347°
2026-05-07 07:19 45.82341 6.62457 22739 ft 349 kts 347°
2026-05-07 07:19 45.84716 6.61810 22284 ft 346 kts 347°
2026-05-07 07:20 45.87072 6.61172 21838 ft 343 kts 347°
2026-05-07 07:20 45.89413 6.60541 21400 ft 341 kts 347°
2026-05-07 07:20 45.91763 6.60230 21008 ft 341 kts
2026-05-07 07:20 45.94024 6.61156 20711 ft 340 kts 25°
2026-05-07 07:21 45.95954 6.63122 20309 ft 341 kts 37°
2026-05-07 07:21 45.97759 6.65332 19888 ft 340 kts 38°
2026-05-07 07:21 45.99650 6.67329 19523 ft 335 kts 24°
2026-05-07 07:21 46.01823 6.68376 19149 ft 327 kts
2026-05-07 07:22 46.04063 6.68334 18778 ft 320 kts 346°
2026-05-07 07:22 46.06123 6.67225 18497 ft 315 kts 326°
2026-05-07 07:22 46.07772 6.65195 18255 ft 312 kts 307°
2026-05-07 07:22 46.08819 6.62493 17976 ft 310 kts 289°
2026-05-07 07:23 46.09511 6.59556 17706 ft 309 kts 288°
2026-05-07 07:23 46.10192 6.56620 17436 ft 309 kts 288°
2026-05-07 07:23 46.10904 6.53534 17167 ft 340 kts 288°
2026-05-07 07:23 46.11663 6.50237 16903 ft 351 kts 288°
2026-05-07 07:24 46.12434 6.46886 16650 ft 353 kts 288°
2026-05-07 07:24 46.13204 6.43533 16392 ft 352 kts 288°
2026-05-07 07:24 46.13977 6.40180 16055 ft 351 kts 288°
2026-05-07 07:24 46.14749 6.36850 15656 ft 349 kts 289°
2026-05-07 07:25 46.17369 6.31310 15314 ft 330 kts 322°
2026-05-07 07:25 46.19416 6.29891 14994 ft 328 kts 345°
2026-05-07 07:25 46.21661 6.29867 14650 ft 321 kts 12°
2026-05-07 07:26 46.23652 6.31207 14172 ft 317 kts 37°
2026-05-07 07:26 46.25234 6.33408 13512 ft 316 kts 44°
2026-05-07 07:26 46.26760 6.35675 12840 ft 313 kts 44°
2026-05-07 07:26 46.28270 6.37920 12179 ft 310 kts 44°
2026-05-07 07:27 46.29767 6.40143 11543 ft 307 kts 44°
2026-05-07 07:27 46.31240 6.42325 11066 ft 299 kts 44°
2026-05-07 07:27 46.32675 6.44446 10695 ft 294 kts 44°
2026-05-07 07:27 46.34108 6.46563 10318 ft 294 kts 44°
2026-05-07 07:28 46.35524 6.48651 10171 ft 286 kts 44°
2026-05-07 07:28 46.36891 6.50672 10046 ft 276 kts 44°
2026-05-07 07:28 46.38193 6.52613 9899 ft 269 kts 45°
2026-05-07 07:28 46.39483 6.54551 9634 ft 266 kts 45°
2026-05-07 07:29 46.40767 6.56492 9458 ft 260 kts 45°
2026-05-07 07:29 46.42019 6.58390 9376 ft 261 kts 45°
2026-05-07 07:29 46.43270 6.60288 9239 ft 260 kts 45°
2026-05-07 07:29 46.44527 6.62104 9115 ft 255 kts 36°
2026-05-07 07:30 46.46056 6.63241 8966 ft 244 kts 12°
2026-05-07 07:30 46.47720 6.63391 8844 ft 239 kts 348°
2026-05-07 07:30 46.49255 6.62583 8704 ft 234 kts 324°
2026-05-07 07:30 46.50425 6.60991 8581 ft 230 kts 302°
2026-05-07 07:31 46.51078 6.58903 8452 ft 227 kts 280°
2026-05-07 07:31 46.51142 6.56634 8309 ft 226 kts 259°
2026-05-07 07:31 46.50623 6.54500 8150 ft 225 kts 240°
2026-05-07 07:31 46.49852 6.52526 7979 ft 225 kts 240°
2026-05-07 07:32 46.49087 6.50553 7796 ft 224 kts 240°
2026-05-07 07:32 46.48325 6.48582 7617 ft 223 kts 240°
2026-05-07 07:32 46.47569 6.46611 7416 ft 223 kts 239°
2026-05-07 07:32 46.46669 6.44782 7086 ft 223 kts 229°
2026-05-07 07:33 46.45621 6.43133 6841 ft 222 kts 227°
2026-05-07 07:33 46.44548 6.41537 6607 ft 220 kts 226°
2026-05-07 07:33 46.43480 6.39955 6358 ft 219 kts 226°
2026-05-07 07:33 46.42419 6.38381 6096 ft 217 kts 226°
2026-05-07 07:34 46.41368 6.36822 5831 ft 216 kts 226°
2026-05-07 07:34 46.40324 6.35273 5588 ft 214 kts 226°
2026-05-07 07:34 46.39289 6.33739 5357 ft 211 kts 226°
2026-05-07 07:34 46.38269 6.32228 5116 ft 209 kts 225°
2026-05-07 07:35 46.37251 6.30722 4857 ft 210 kts 225°
2026-05-07 07:35 46.36228 6.29208 4566 ft 211 kts 225°
2026-05-07 07:35 46.35212 6.27706 4278 ft 212 kts 225°
2026-05-07 07:35 46.34178 6.26177 3989 ft 213 kts 226°
2026-05-07 07:36 46.33133 6.24634 3692 ft 208 kts 226°
2026-05-07 07:36 46.32158 6.23196 3429 ft 199 kts 226°
2026-05-07 07:36 46.31217 6.21808 3188 ft 186 kts 226°
2026-05-07 07:36 46.30340 6.20514 2939 ft 173 kts 226°
2026-05-07 07:37 46.29526 6.19315 2692 ft 162 kts 226°
2026-05-07 07:37 46.28760 6.18186 2470 ft 154 kts 226°
2026-05-07 07:37 46.28021 6.17097 2257 ft 151 kts 226°
2026-05-07 07:37 46.27290 6.16020 2053 ft 150 kts 226°
2026-05-07 07:38 46.26563 6.14948 1855 ft 149 kts 226°
2026-05-07 07:38 46.25838 6.13882 1685 ft 148 kts 225°
2026-05-07 07:38 46.25115 6.12822 1500 ft 148 kts 225°
2026-05-07 07:38 46.24413 6.11787 1410 ft 136 kts 225°
2026-05-07 07:39 46.23840 6.10944 1403 ft 94 kts 225°
2026-05-07 07:39 46.23502 6.10450 1405 ft 48 kts 225°
2026-05-07 07:39 46.23313 6.10187 1407 ft 27 kts 216°
2026-05-07 07:39 46.23158 6.10096 1397 ft 17 kts 191°
2026-05-07 07:40 46.23096 6.10103 1400 ft 5 kts 150°
2026-05-07 07:40 46.23069 6.10135 1400 ft 6 kts 137°
2026-05-07 07:40 46.23035 6.10186 1401 ft 9 kts 133°
2026-05-07 07:40 46.22977 6.10271 1398 ft 15 kts 136°
2026-05-07 07:41 46.22952 6.10345 1403 ft 8 kts 68°
2026-05-07 07:41 46.23007 6.10425 1395 ft 14 kts 45°
2026-05-07 07:41 46.23061 6.10505 1398 ft 2 kts 45°
2026-05-07 07:41 46.23064 6.10521 1398 ft 1 kts 82°
2026-05-07 07:42 46.23051 6.10545 1403 ft 6 kts 137°
2026-05-07 07:42 46.23031 6.10571 1396 ft 1 kts 136°
2026-05-07 07:42 46.23029 6.10574 1396 ft 0 kts 136°